Hourly Data Report for October 28, 2014

All times are specified in Local Standard Time (LST). Add 1 hour to adjust for Daylight Saving Time where and when it is observed.

POND INLET A
NUNAVUT

72°41'22.000" N
77°58'08.000" W
61.60 m
2403206
71095
YIO

Download Data

Hourly Data (October 2014)
Hourly Data Report for October 28, 2014
Temp Definition
°C
Dew Point Temp Definition
°C
Rel Hum Definition
%
Wind Dir Definition
10's deg

Wind Spd Definition
km/h
Visibility Definition
km
Stn Press Definition
kPa
Hmdx Definition


Wind Chill Definition


Weather Definition


TIME
00:00 Legend Double Dagger -10.8 -13.0 84 16 9 16.1 100.96   -16 Snow
01:00 Legend Double Dagger -10.5 -12.1 88 16 9 8.1 100.93   -15 Snow
02:00 Legend Double Dagger -10.3 -11.8 89 15 13 16.1 100.90   -17 Snow
03:00 Legend Double Dagger -11.5 -12.7 91 15 13 16.1 100.85   -18 LegendNANA
04:00 Legend Double Dagger -10.1 -11.7 88 16 11 6.4 100.80   -16 Snow
05:00 Legend Double Dagger -10.0 -11.5 89 19 8 12.9 100.76   -14 Snow
06:00 Legend Double Dagger -11.4 -12.6 91 17 9 16.1 100.71   -17 LegendNANA
07:00 Legend Double Dagger -10.8 -12.0 91 19 9 16.1 100.69   -16 LegendNANA
08:00 Legend Double Dagger -11.0 -12.4 89 17 11 16.1 100.64   -17 LegendNANA
09:00 Legend Double Dagger -10.9 -12.4 89 17 9 16.1 100.59   -16 LegendNANA
10:00 Legend Double Dagger -9.4 -11.2 87 19 8 16.1 100.57   -14 LegendNANA
11:00 Legend Double Dagger -10.0 -11.5 89 19 8 16.1 100.53   -14 LegendNANA
12:00 Legend Double Dagger -9.4 -10.6 91 21 9 16.1 100.48   -14 Snow
13:00 Legend Double Dagger -9.2 -10.6 90 16 15 16.1 100.42   -16 LegendNANA
14:00 Legend Double Dagger -9.6 -10.7 92 18 13 16.1 100.39   -16 LegendNANA
15:00 Legend Double Dagger -10.1 -11.3 91 18 11 16.1 100.36   -16 LegendNANA
16:00 Legend Double Dagger -9.2 -10.3 92 19 11 16.1 100.33   -15 LegendNANA
17:00 Legend Double Dagger -8.7 -9.6 93 20 9 3.2 100.29   -13 Snow
18:00 Legend Double Dagger -8.9 -10.0 92 18 9 4.8 100.25   -14 Snow
19:00 Legend Double Dagger -8.6 -9.7 92 18 8 6.4 100.22   -13 Snow
20:00 Legend Double Dagger -8.6 -9.6 92 16 9 9.7 100.18   -13 Snow
21:00 Legend Double Dagger -8.7 -9.8 92 19 5 8.1 100.12   -11 Snow
22:00 Legend Double Dagger -8.7 -9.8 92 17 11 16.1 100.05   -14 Snow
23:00 Legend Double Dagger -8.6 -9.7 92 16 11 16.1 100.00   -14 Snow

Notes on Data Quality.

Legend

  • E = Estimated
  • M = Missing
  • NA = Not Available
  • ‡ = Partner data that is not subject to review by the National Climate Archives
Date modified: